Mount Pleasant, IA

4:24 AM CDT on March 28, 2017 (GMT -0500)
Mount Pleasant Municipal

Weather History for KMPZ - March, 2013

Change the Weather History Date:

Sunday, March 17, 2013

  Actual Average Record
Temperature  
Mean Temperature 36 °F -  
Max Temperature 43 °F 48 °F 81 °F (2012)
Min Temperature 31 °F 29 °F 10 °F (1993)
Degree Days  
Heating Degree Days 28    
Moisture  
Dew Point 24 °F    
Average Humidity 60    
Maximum Humidity 70    
Minimum Humidity 47    
Precipitation  
Precipitation 0.00 in - - ()
Sea Level Pressure  
Sea Level Pressure 30.06 in    
Wind  
Wind Speed 13 mph (ENE)    
Max Wind Speed 18 mph    
Max Gust Speed 24 mph    
Visibility 10 miles    
Events Snow    
Averages and records for this station are not official NWS values.
T = Trace of Precipitation, MM = Missing Value Source: NWS Daily Summary

Daily Weather History Graph

Daily Weather History Graph

Search for Another Location

Airport or City:

Trip Planner

Search our weather history database for the weather conditions in past years. The results will help you decide how hot, cold, wet, or windy it might be!

Date:

Astronomy

Mar. 17, 2013 Rise Set
Actual Time 7:13 AM CDT 7:15 PM CDT
Civil Twilight 6:46 AM CDT 7:42 PM CDT
Nautical Twilight 6:14 AM CDT 8:14 PM CDT
Astronomical Twilight 5:42 AM CDT 8:47 PM CDT
Moon 10:24 AM CDT (3/17) 12:25 AM CDT (3/17)
Length of Visible Light 12h 56m
Length of Day
12h 01m
Waxing Crescent, 31% of the Moon is Illuminated
Mar 17
Waxing Crescent
Mar 19
First Quarter
Mar 27
Full
Apr 2
Last Quarter
Apr 10
New

Hourly Weather History & Observations

Time (CDT) Temp. Windchill Dew Point Humidity Pressure Visibility Wind Dir Wind Speed Gust Speed Precip Events Conditions
12:15 AM 34.7 °F 25.1 °F 24.3 °F 66% 30.15 in 10.0 mi North 15.0 mph - N/A   Clear
12:35 AM 34.5 °F 25.7 °F 23.9 °F 65% 30.15 in 10.0 mi North 12.7 mph - N/A   Clear
12:55 AM 34.2 °F 23.6 °F 23.0 °F 64% 30.14 in 10.0 mi North 17.3 mph - N/A   Clear
1:15 AM 34.0 °F 25.0 °F 23.2 °F 65% 30.14 in 10.0 mi North 12.7 mph - N/A   Clear
1:35 AM 33.8 °F 23.9 °F 22.8 °F 64% 30.14 in 10.0 mi North 15.0 mph 21.9 mph N/A   Clear
1:55 AM 33.6 °F 23.3 °F 22.8 °F 65% 30.13 in 10.0 mi North 16.1 mph - N/A   Clear
2:15 AM 33.3 °F 23.7 °F 22.5 °F 65% 30.13 in 10.0 mi North 13.8 mph 19.6 mph N/A   Clear
2:35 AM 33.1 °F 23.4 °F 22.3 °F 65% 30.13 in 10.0 mi North 13.8 mph - N/A   Clear
2:55 AM 33.1 °F 22.6 °F 22.5 °F 65% 30.12 in 10.0 mi North 16.1 mph - N/A   Clear
3:15 AM 32.9 °F 22.8 °F 22.5 °F 65% 30.12 in 10.0 mi North 15.0 mph - N/A   Clear
3:35 AM 32.2 °F 24.4 °F 22.8 °F 68% 30.12 in 10.0 mi North 9.2 mph - N/A   Clear
3:55 AM 32.0 °F 23.6 °F 22.5 °F 68% 30.13 in 10.0 mi NNE 10.4 mph - N/A   Clear
4:15 AM 32.0 °F 23.6 °F 22.8 °F 69% 30.12 in 10.0 mi NNE 10.4 mph - N/A   Clear
4:35 AM 32.0 °F 24.2 °F 22.8 °F 69% 30.12 in 10.0 mi NNE 9.2 mph - N/A   Clear
4:55 AM 32.0 °F 24.2 °F 23.0 °F 69% 30.13 in 10.0 mi NNE 9.2 mph - N/A   Scattered Clouds
5:15 AM 32.0 °F 23.0 °F 23.0 °F 69% 30.12 in 10.0 mi NNE 11.5 mph - N/A   Scattered Clouds
5:35 AM 31.8 °F 23.9 °F 23.2 °F 70% 30.14 in 10.0 mi NNE 9.2 mph - N/A   Clear
5:55 AM 31.6 °F 23.7 °F 22.3 °F 68% 30.15 in 10.0 mi NE 9.2 mph - N/A   Clear
6:15 AM 31.6 °F 23.1 °F 21.2 °F 65% 30.14 in 10.0 mi NE 10.4 mph - N/A   Clear
6:35 AM 31.6 °F 25.1 °F 21.4 °F 66% 30.14 in 10.0 mi NE 6.9 mph - N/A   Clear
6:55 AM 31.3 °F 22.7 °F 20.8 °F 65% 30.14 in 10.0 mi ENE 10.4 mph - N/A   Clear
7:15 AM 31.1 °F 23.1 °F 20.8 °F 66% 30.15 in 10.0 mi NE 9.2 mph - N/A   Clear
7:35 AM 31.1 °F 23.7 °F 21.4 °F 67% 30.15 in 10.0 mi NE 8.1 mph - N/A   Clear
7:55 AM 31.8 °F 24.6 °F 21.9 °F 67% 30.16 in 10.0 mi NE 8.1 mph - N/A   Clear
8:15 AM 32.0 °F 24.2 °F 22.1 °F 67% 30.16 in 10.0 mi NE 9.2 mph - N/A   Clear
8:35 AM 32.7 °F 23.9 °F 22.5 °F 66% 30.16 in 10.0 mi ENE 11.5 mph - N/A   Clear
8:55 AM 33.1 °F 23.9 °F 22.3 °F 65% 30.16 in 10.0 mi ENE 12.7 mph 18.4 mph N/A   Scattered Clouds
9:15 AM 34.2 °F 24.0 °F 21.0 °F 59% 30.16 in 10.0 mi East 16.1 mph 20.7 mph N/A   Scattered Clouds
9:35 AM 34.7 °F 24.7 °F 20.3 °F 56% 30.16 in 10.0 mi East 16.1 mph 21.9 mph N/A   Scattered Clouds
9:55 AM 35.2 °F 25.4 °F 20.7 °F 55% 30.15 in 10.0 mi East 16.1 mph - N/A   Scattered Clouds
10:15 AM 35.6 °F 25.5 °F 20.3 °F 54% 30.15 in 10.0 mi ENE 17.3 mph - N/A   Mostly Cloudy
10:35 AM 36.1 °F 25.9 °F 21.0 °F 54% 30.15 in 10.0 mi East 18.4 mph 24.2 mph N/A   Overcast
10:55 AM 36.0 °F 27.1 °F 20.7 °F 54% 30.15 in 10.0 mi ESE 13.8 mph - N/A   Overcast
11:15 AM 36.9 °F 29.1 °F 20.5 °F 52% 30.14 in 10.0 mi East 11.5 mph 18.4 mph N/A   Overcast
11:35 AM 37.4 °F 28.5 °F 20.5 °F 51% 30.13 in 10.0 mi East 15.0 mph - N/A   Overcast
11:55 AM 38.3 °F 30.1 °F 20.8 °F 50% 30.13 in 10.0 mi East 13.8 mph 19.6 mph N/A   Overcast
12:15 PM 38.1 °F 30.2 °F 20.8 °F 50% 30.12 in 10.0 mi East 12.7 mph 18.4 mph N/A   Overcast
12:35 PM 38.7 °F 30.5 °F 21.7 °F 51% 30.11 in 10.0 mi East 13.8 mph 18.4 mph N/A   Overcast
12:55 PM 38.5 °F 31.1 °F 21.6 °F 51% 30.10 in 10.0 mi East 11.5 mph - N/A   Overcast
1:15 PM 39.6 °F 30.6 °F 22.6 °F 51% 30.09 in 10.0 mi East 17.3 mph 20.7 mph N/A   Overcast
1:35 PM 40.8 °F 32.9 °F 22.8 °F 49% 30.08 in 10.0 mi ESE 15.0 mph - N/A   Overcast
1:55 PM 39.7 °F 31.9 °F 22.8 °F 51% 30.07 in 10.0 mi East 13.8 mph 18.4 mph N/A   Overcast
2:15 PM 41.4 °F 34.0 °F 24.3 °F 51% 30.06 in 10.0 mi East 13.8 mph 21.9 mph N/A   Overcast
2:35 PM 40.5 °F 33.2 °F 23.5 °F 51% 30.04 in 10.0 mi East 12.7 mph 16.1 mph N/A   Overcast
2:55 PM 42.1 °F 35.2 °F 23.0 °F 47% 30.02 in 10.0 mi East 12.7 mph - N/A   Mostly Cloudy
3:15 PM 42.8 °F 35.8 °F 23.7 °F 47% 30.01 in 10.0 mi ESE 13.8 mph - N/A   Mostly Cloudy
3:35 PM 41.9 °F 33.7 °F 24.3 °F 50% 30.01 in 10.0 mi East 17.3 mph - N/A   Overcast
3:55 PM 42.1 °F 34.9 °F 25.5 °F 52% 30.00 in 10.0 mi East 13.8 mph 21.9 mph N/A   Mostly Cloudy
4:15 PM 42.1 °F 34.5 °F 25.0 °F 51% 29.99 in 10.0 mi East 15.0 mph - N/A   Mostly Cloudy
4:35 PM 41.9 °F 34.3 °F 24.8 °F 51% 30.00 in 10.0 mi ESE 15.0 mph - N/A   Mostly Cloudy
4:55 PM 41.9 °F 34.6 °F 25.3 °F 52% 29.98 in 10.0 mi East 13.8 mph 20.7 mph N/A   Mostly Cloudy
5:15 PM 42.4 °F 34.1 °F 25.9 °F 52% 29.97 in 10.0 mi East 18.4 mph 21.9 mph N/A   Mostly Cloudy
5:35 PM 41.4 °F 33.0 °F 25.7 °F 54% 29.96 in 10.0 mi East 17.3 mph - N/A   Mostly Cloudy
5:55 PM 41.2 °F 33.4 °F 26.2 °F 55% 29.96 in 10.0 mi East 15.0 mph - N/A   Mostly Cloudy
6:15 PM 40.5 °F 32.8 °F 26.1 °F 57% 29.96 in 10.0 mi East 13.8 mph - N/A   Mostly Cloudy
6:35 PM 39.7 °F 31.9 °F 25.7 °F 57% 29.96 in 10.0 mi East 13.8 mph - N/A   Overcast
6:55 PM 39.4 °F 31.4 °F 26.1 °F 59% 29.95 in 10.0 mi East 13.8 mph - N/A   Mostly Cloudy
7:15 PM 39.2 °F 31.6 °F 26.2 °F 60% 29.95 in 10.0 mi East 12.7 mph - N/A   Overcast
7:35 PM 38.8 °F 31.2 °F 26.4 °F 61% 29.94 in 10.0 mi East 12.7 mph 17.3 mph N/A   Overcast
7:55 PM 38.8 °F 31.2 °F 26.4 °F 61% 29.95 in 10.0 mi East 12.7 mph - N/A   Overcast
8:15 PM 38.7 °F 30.5 °F 26.6 °F 62% 29.93 in 10.0 mi East 13.8 mph - N/A   Overcast
8:35 PM 38.7 °F 30.9 °F 26.6 °F 62% 29.93 in 10.0 mi East 12.7 mph - N/A   Overcast
8:55 PM 38.5 °F 31.6 °F 26.8 °F 63% 29.93 in 10.0 mi East 10.4 mph 13.8 mph N/A   Overcast
9:15 PM 38.3 °F 30.1 °F 27.1 °F 64% 29.93 in 10.0 mi East 13.8 mph 17.3 mph N/A   Overcast
9:35 PM 38.3 °F 29.0 °F 27.1 °F 64% 29.91 in 10.0 mi East 17.3 mph 20.7 mph N/A   Overcast
9:55 PM 38.3 °F 29.0 °F 27.3 °F 65% 29.90 in 10.0 mi East 17.3 mph - N/A   Overcast
10:15 PM 38.1 °F 29.8 °F 27.5 °F 66% 29.91 in 10.0 mi East 13.8 mph - N/A   Overcast
10:35 PM 37.9 °F 29.6 °F 27.5 °F 66% 29.91 in 10.0 mi East 13.8 mph 20.7 mph N/A   Overcast
10:55 PM 37.8 °F 30.2 °F 27.5 °F 67% 29.90 in 10.0 mi East 11.5 mph - N/A   Overcast
11:15 PM 37.8 °F 29.4 °F 27.5 °F 67% 29.89 in 7.0 mi East 13.8 mph 20.7 mph N/A Snow Light Snow
11:35 PM 37.4 °F 29.3 °F 28.2 °F 69% 29.89 in 7.0 mi East 12.7 mph - N/A Snow Light Snow
11:55 PM 37.4 °F 30.8 °F 28.2 °F 69% 29.88 in 7.0 mi East 9.2 mph - N/A Snow Light Snow